EA1YO-13 Weather Reports


time (UTC)temp
C
wind
direction
speed
KPH
gust
KPH
rain 1hr
cm
rain 24hr
cm
rain mn
cm
humidity
%
barometer
mb
20260510225041 11 168 3.2 6.4 0.00 0.18 0.00 93 1013.1
20260510224532 11 199 4.8 6.4 0.00 0.18 0.00 92 1013.1
20260510224029 11 158 3.2 6.4 0.00 0.18 0.00 92 1013.2
20260510223556 11 169 1.6 3.2 0.00 0.18 0.00 92 1013.0
20260510223053 11 192 1.6 3.2 0.00 0.18 0.00 92 1013.1
20260510222546 11 196 1.6 3.2 0.00 0.18 0.00 92 1013.0
20260510222041 11 180 1.6 6.4 0.00 0.18 0.00 92 1013.0
20260510221535 11 222 4.8 9.7 0.00 0.18 0.00 92 1012.9
20260510221031 11 0.0 3.2 0.00 0.18 0.00 92 1012.9
20260510220109 12 150 0.0 3.2 0.00 0.18 0.00 92 1013.0
20260510215605 12 158 3.2 6.4 0.00 0.18 0.18 92 1012.9
20260510215057 12 158 3.2 6.4 0.00 0.18 0.18 92 1012.9
20260510214553 12 158 3.2 6.4 0.00 0.18 0.18 92 1013.0
20260510214044 12 166 3.2 3.2 0.00 0.18 0.18 92 1013.0
20260510213541 12 176 1.6 6.4 0.00 0.18 0.18 92 1013.0
20260510213033 12 169 1.6 6.4 0.00 0.18 0.18 91 1013.0
20260510212529 12 0.0 0.0 0.00 0.18 0.18 91 1013.0
20260510212057 12 171 1.6 3.2 0.00 0.20 0.18 91 1013.0
20260510211553 12 180 3.2 6.4 0.00 0.20 0.18 91 1012.9
20260510210542 12 195 4.8 11.3 0.00 0.23 0.18 91 1012.7
20260510210033 12 175 3.2 6.4 0.00 0.23 0.18 91 1012.8
20260510205529 12 180 3.2 6.4 0.00 0.23 0.18 91 1012.7
20260510205045 12 177 3.2 6.4 0.00 0.23 0.18 90 1012.8
20260510204541 12 158 3.2 6.4 0.00 0.23 0.18 90 1012.7
20260510203042 12 167 1.6 3.2 0.00 0.28 0.18 90 1012.3
20260510202532 12 175 4.8 6.4 0.00 0.28 0.18 90 1012.2
20260510202029 12 158 4.8 6.4 0.00 0.28 0.18 90 1012.3
20260510201534 12 172 4.8 6.4 0.00 0.28 0.18 90 1012.2
20260510201030 13 178 3.2 6.4 0.00 0.28 0.18 90 1012.2
20260510200053 13 204 4.8 6.4 0.00 0.28 0.18 89 1012.1
20260510195545 13 182 3.2 6.4 0.00 0.28 0.18 89 1012.2
20260510195041 13 180 3.2 6.4 0.00 0.28 0.18 89 1012.1
20260510194605 13 201 4.8 6.4 0.00 0.28 0.18 90 1012.0
20260510194057 13 207 4.8 6.4 0.00 0.28 0.18 90 1012.2
20260510193554 13 192 4.8 6.4 0.00 0.28 0.18 89 1012.1
20260510192545 13 213 6.4 11.3 0.00 0.28 0.18 89 1011.9
20260510192042 13 193 6.4 6.4 0.00 0.28 0.18 89 1011.9
20260510191033 13 182 4.8 6.4 0.00 0.28 0.18 89 1011.9
20260510190530 13 180 4.8 6.4 0.00 0.28 0.18 89 1012.0
20260510185609 13 234 9.7 12.9 0.00 0.28 0.18 88 1011.8
20260510185105 13 248 11.3 17.7 0.00 0.28 0.18 88 1011.8
20260510184557 13 234 6.4 11.3 0.00 0.28 0.18 88 1011.9
20260510184053 13 217 8.0 14.5 0.00 0.28 0.18 88 1011.7
20260510183545 13 223 4.8 9.7 0.05 0.28 0.18 89 1011.7
20260510183042 13 207 6.4 9.7 0.05 0.28 0.18 90 1011.6
20260510182032 14 228 6.4 12.9 0.05 0.28 0.18 91 1011.4
20260510181529 14 180 3.2 3.2 0.05 0.28 0.18 91 1011.5
20260510181042 14 202 4.8 11.3 0.05 0.28 0.18 91 1011.5
20260510180533 13 203 6.4 11.3 0.05 0.28 0.18 91 1011.6
20260510180029 13 225 6.4 11.3 0.10 0.28 0.18 91 1011.9
20260510175530 14 186 6.4 9.7 0.13 0.28 0.18 91 1011.8
20260510174605 14 192 8.0 12.9 0.15 0.28 0.18 90 1011.8
20260510174057 14 263 6.4 12.9 0.15 0.28 0.18 90 1011.8
20260510173554 14 280 8.0 12.9 0.10 0.20 0.13 89 1011.7
20260510172605 14 172 9.7 14.5 0.10 0.20 0.13 88 1011.5
20260510172057 14 248 12.9 22.5 0.10 0.20 0.13 87 1011.1
20260510171554 14 292 16.1 25.7 0.10 0.20 0.13 87 1011.0
20260510171045 15 293 16.1 29.0 0.10 0.20 0.13 87 1010.7
20260510170542 15 272 16.1 32.2 0.10 0.20 0.13 86 1010.8
20260510170034 15 299 16.1 27.4 0.05 0.18 0.10 84 1010.7
20260510165530 15 287 16.1 27.4 0.03 0.15 0.05 82 1010.9
20260510165021 16 301 16.1 25.7 0.00 0.13 0.03 81 1010.9
20260510164517 16 288 11.3 25.7 0.00 0.13 0.03 81 1010.8
20260510164109 16 282 12.9 25.7 0.00 0.13 0.03 81 1010.9
20260510163606 16 314 9.7 22.5 0.00 0.13 0.03 81 1010.7
20260510163058 16 278 9.7 20.9 0.00 0.13 0.03 81 1010.6
20260510162554 16 326 11.3 17.7 0.00 0.13 0.03 80 1010.6
20260510162044 16 299 9.7 20.9 0.00 0.13 0.03 80 1010.5
20260510161541 16 298 8.0 14.5 0.00 0.13 0.03 80 1010.4
20260510161033 16 296 8.0 14.5 0.00 0.13 0.03 80 1010.3
20260510160529 16 309 8.0 14.5 0.00 0.13 0.03 79 1010.2
20260510160044 16 300 8.0 17.7 0.00 0.13 0.03 79 1010.2
20260510155541 17 279 4.8 12.9 0.00 0.13 0.03 79 1010.0
20260510155037 17 282 8.0 17.7 0.00 0.13 0.03 78 1010.0
20260510154534 17 318 8.0 17.7 0.00 0.13 0.03 78 1010.0
20260510154030 17 296 9.7 17.7 0.00 0.13 0.03 77 1009.9
20260510153053 17 328 9.7 17.7 0.00 0.13 0.03 78 1009.8
20260510152544 17 317 9.7 17.7 0.00 0.13 0.03 78 1009.8
20260510152041 17 317 8.0 17.7 0.00 0.15 0.03 78 1009.8
20260510151533 17 329 6.4 17.7 0.00 0.20 0.03 78 1009.7
20260510151029 17 305 4.8 11.3 0.00 0.20 0.03 78 1009.8
20260510150523 17 279 9.7 17.7 0.00 0.20 0.03 77 1009.8
20260510150020 17 234 6.4 17.7 0.00 0.20 0.03 77 1009.9
20260510145516 17 266 4.8 12.9 0.00 0.20 0.03 78 1009.9
20260510145108 17 271 1.6 9.7 0.00 0.20 0.03 78 1009.9
20260510144605 17 294 6.4 17.7 0.00 0.20 0.03 78 1010.0
20260510144056 17 268 4.8 12.9 0.00 0.20 0.03 79 1009.9
20260510143553 17 273 8.0 17.7 0.00 0.20 0.03 79 1009.7
20260510143045 16 282 11.3 22.5 0.00 0.20 0.03 78 1009.5
20260510142541 16 261 11.3 25.7 0.00 0.20 0.03 76 1009.6
20260510142033 16 295 16.1 29.0 0.00 0.20 0.03 77 1009.4
20260510141529 16 308 17.7 37.0 0.00 0.20 0.03 77 1009.5
20260510141020 17 240 19.3 38.6 0.00 0.20 0.03 74 1009.5
20260510140517 18 276 8.0 14.5 0.00 0.20 0.03 73 1008.8
20260510140108 19 270 9.7 17.7 0.00 0.20 0.03 71 1008.8
20260510135605 19 295 9.7 17.7 0.00 0.20 0.03 71 1009.0
20260510135059 19 271 8.0 17.7 0.00 0.20 0.03 68 1008.9
20260510134555 18 270 4.8 9.7 0.00 0.20 0.03 62 1009.1
20260510134052 18 215 6.4 12.9 0.00 0.20 0.03 62 1009.1
20260510133544 18 229 6.4 12.9 0.00 0.20 0.03 64 1009.1
20260510133041 18 232 8.0 14.5 0.00 0.20 0.03 62 1009.1
20260510132532 17 223 8.0 12.9 0.03 0.20 0.03 62 1009.1
20260510132029 18 260 8.0 17.7 0.03 0.20 0.03 65 1009.2
20260510131520 17 230 11.3 17.7 0.03 0.20 0.03 57 1009.1
20260510131017 17 225 12.9 29.0 0.03 0.20 0.03 55 1009.2
20260510130610 17 215 8.0 12.9 0.03 0.20 0.03 55 1009.1
20260510130107 17 197 4.8 11.3 0.03 0.20 0.03 55 1009.1
20260510125604 17 198 6.4 12.9 0.03 0.20 0.03 56 1009.2
20260510125056 17 197 6.4 12.9 0.03 0.20 0.03 56 1009.0
20260510124552 17 169 6.4 12.9 0.03 0.20 0.03 59 1009.0
20260510124044 17 142 4.8 11.3 0.03 0.20 0.03 61 1009.0
20260510123541 16 178 3.2 9.7 0.03 0.20 0.03 62 1009.2
20260510123032 16 201 12.9 27.4 0.03 0.20 0.03 61 1009.8
20260510122529 17 219 16.1 43.5 0.00 0.18 0.00 57 1010.4
20260510122022 18 160 16.1 33.8 0.00 0.18 0.00 56 1010.4
20260510121519 18 202 14.5 24.1 0.00 0.18 0.00 57 1010.3
20260510121116 18 187 14.5 32.2 0.00 0.18 0.00 57 1010.3
20260510120607 18 159 12.9 32.2 0.00 0.18 0.00 58 1010.3
20260510120104 18 186 11.3 24.1 0.00 0.18 0.00 59 1010.3
20260510115556 18 173 11.3 20.9 0.00 0.18 0.00 59 1010.3
20260510115053 18 163 9.7 17.7 0.00 0.18 0.00 60 1010.4
20260510114544 18 175 11.3 24.1 0.00 0.18 0.00 59 1010.3
20260510114041 18 184 9.7 25.7 0.00 0.18 0.00 61 1010.3
20260510113532 18 209 1.6 6.4 0.00 0.18 0.00 67 1010.3
20260510113029 18 338 1.6 6.4 0.00 0.18 0.00 69 1010.3
20260510112521 18 320 3.2 6.4 0.00 0.18 0.00 73 1010.2
20260510112018 18 23 4.8 6.4 0.00 0.18 0.00 74 1010.3